Location: 22
(39.7117°N, 89.5929°W)
Time: 15:27:20
(UTC-05:00)

SR - Visible Passes

Search period start: 20 May 2025 00:00
Search period end: 30 May 2025 00:00
Orbit: 569 x 857 km, 66.7° (Epoch: 20 May)

Date Brightness Start Highest point End Pass type
(mag) Time Alt. Az. Time Alt. Az. Time Alt. Az.
20 May ? 01:28:50 59° NW 01:28:50 59° NW 01:34:31 10° NNE visible
20 May ? 03:09:30 10° WNW 03:11:47 12° NW 03:14:05 10° NNW visible
21 May ? 00:35:34 56° ENE 00:35:34 56° ENE 00:40:16 10° NNE visible
21 May ? 02:14:38 18° WNW 02:16:48 22° NW 02:21:12 10° N visible
21 May ? 23:42:15 27° ENE 23:42:15 27° ENE 23:45:32 10° NE visible
22 May ? 01:21:17 38° WNW 01:22:06 40° NW 01:27:32 10° NNE visible
22 May ? 22:48:50 12° ENE 22:48:50 12° ENE 22:49:44 10° ENE visible
23 May ? 00:27:53 78° NNW 00:27:53 78° NNW 00:33:29 10° NNE visible
23 May ? 02:06:56 10° WNW 02:10:21 16° NW 02:13:45 10° N visible
23 May ? 23:34:23 46° E 23:34:23 46° E 23:39:02 10° NE visible
24 May ? 01:13:25 23° W 01:15:29 28° NW 01:20:25 10° N visible
24 May ? 22:40:47 22° E 22:40:47 22° E 22:43:59 10° NE visible
25 May ? 00:19:48 46° W 00:20:54 53° WNW 00:26:33 10° NNE visible
25 May ? 02:02:13 10° NW 02:03:58 11° NW 02:05:42 10° NNW visible
25 May ? 23:26:03 71° SSE 23:26:32 77° ESE 23:32:20 10° NNE visible
26 May ? 01:05:03 11° W 01:08:56 20° NW 01:13:07 10° N visible
26 May ? 22:32:06 36° ESE 22:32:26 36° ESE 22:37:41 10° NE visible
27 May ? 00:11:06 22° WSW 00:14:12 37° NW 00:19:31 10° NNE visible
27 May ? 21:37:55 17° ESE 21:38:33 17° ESE 21:42:07 10° ENE visible
27 May ? 23:16:53 31° SW 23:19:43 72° WNW 23:25:30 10° NNE visible
28 May ? 00:59:23 10° WNW 01:02:29 15° NW 01:05:34 10° N visible
28 May ? 22:22:15 25° S 22:25:28 56° ESE 22:31:07 10° NE visible
29 May ? 00:02:48 10° WSW 00:07:35 26° NW 00:12:20 10° N visible
29 May ? 21:26:56 11° SSE 21:31:26 26° ESE 21:36:09 10° NE visible
29 May ? 23:07:22 10° SW 23:12:57 49° NW 23:18:31 10° NNE visible
